Location: Douar Ettorche
(35.1734°N, 0.4346°E)
Time: 00:46:03
(UTC+00:00)

Daily predictions for brighter satellites

Satellite Brightness Start Highest point End
(mag) Time Altitude Azimuth Time Altitude Azimuth Time Altitude Azimuth
Cosmos 1697 Rocket 4.4 02:32:33 27° NNE 02:32:33 27° NNE 02:35:01 10° NNE
Cosmos 1980 Rocket 3.7 02:35:19 32° ENE 02:35:19 32° ENE 02:38:52 10° NE
USA 267 4.2 02:37:33 10° NNE 02:42:17 39° N 02:42:17 39° N
Cosmos 1821 Rocket 4.5 02:51:38 10° N 02:56:29 54° NNE 02:56:29 54° NNE
Lacrosse 5 3.5 03:12:00 26° N 03:12:00 26° N 03:14:43 10° NNE
Cosmos 1934 Rocket 4.5 03:06:59 10° N 03:12:55 55° E 03:18:51 10° SSE
USA 234 4.1 03:08:59 10° ESE 03:15:08 47° NE 03:21:19 10° NNW
ADEOS II 4.3 03:18:35 10° NNW 03:19:23 13° NNW 03:19:23 13° NNW
Cosmos 44 4.2 03:24:50 40° NNE 03:24:50 40° NNE 03:27:46 10° NNE
Cosmos 921 Rocket 3.9 03:27:48 45° ENE 03:27:48 45° ENE 03:31:16 10° NNE
Cosmos 2278 4.0 03:28:11 54° NNW 03:28:11 54° NNW 03:32:56 10° NNE
Cosmos 2228 Rocket 3.5 03:31:12 58° ENE 03:31:12 58° ENE 03:35:02 10° NNE
MSX 3.7 03:26:23 10° N 03:32:11 82° WNW 03:32:39 75° SW
IDEFIX/ARIANE 42P 3.3 03:30:48 10° N 03:34:28 39° NNW 03:34:28 39° NNW
ARIANE 5 R/B 4.1 03:39:55 10° N 03:42:10 22° NNW 03:42:10 22° NNW
GENESIS II 4.3 03:51:47 74° NNE 03:51:47 74° NNE 03:55:30 10° NNE
Meteor 1-4 Rocket 3.3 03:52:32 43° SE 03:53:03 47° E 03:56:25 10° NNE
Cosmos 1869 Rocket 4.4 03:51:07 10° N 03:55:20 50° E 03:59:31 10° SSE
X-37B 3.2 04:01:25 14° N 04:01:47 14° N 04:03:32 10° NE
Cosmos 1763 Rocket 3.9 03:58:32 14° S 04:03:01 63° ESE 04:08:17 10° NNE
Cosmos 1727 Rocket 4.2 03:56:44 10° S 04:03:02 74° E 04:09:22 10° N
Cosmos 2360 Rocket 4.1 04:02:55 10° SSE 04:07:41 29° ESE 04:12:28 10° NE
H-2A R/B 2.0 04:05:43 10° S 04:09:58 63° WSW 04:14:21 10° NNW
SJ 16-02 2.2 04:06:27 10° N 04:10:44 52° ENE 04:15:01 10° SSE
ERS-2 2.3 04:07:24 10° SSE 04:11:01 71° ENE 04:14:41 10° N
PSLV R/B 3.4 04:08:56 10° N 04:13:04 59° WNW 04:14:17 41° SW
Cosmos 1980 Rocket 3.3 04:17:07 25° WNW 04:17:42 25° WNW 04:22:19 10° N
FALCON 9 DEB 3.2 04:17:59 46° SSW 04:18:50 72° SE 04:22:15 10° NE
CZ-2C R/B 2.5 04:15:48 10° N 04:20:51 59° WNW 04:24:56 16° SSW
Meteor 1-10 Rocket 4.3 04:17:40 13° SSW 04:22:41 60° W 04:28:28 10° N
Cosmos 2322 Rocket 2.3 04:17:11 10° SSW 04:22:49 80° ESE 04:28:31 10° NNE
PAYLOAD A 4.1 04:19:51 10° N 04:24:17 44° WNW 04:26:29 26° SW
NOSS 3-3 (A) 4.4 04:22:36 28° W 04:24:57 40° NW 04:30:50 10° NNE
NOSS 3-3 (C) 4.4 04:22:46 28° W 04:25:04 40° NW 04:30:55 10° NNE
Cosmos 468 Rocket 4.0 04:23:29 16° SSW 04:27:39 65° WNW 04:32:55 10° N
Cosmos 1812 3.3 04:27:26 33° W 04:27:43 34° W 04:31:15 10° NNW
FENGYUN 3A 4.1 04:23:14 10° NNE 04:28:35 64° ESE 04:33:56 10° S
SJ-6F 4.3 04:25:53 10° N 04:29:59 79° WNW 04:34:03 10° SSW
SL-16 R/B 2.1 04:25:35 14° SSW 04:30:31 71° WNW 04:36:12 10° NNE
Cosmos 2263 Rocket 2.2 04:26:15 10° NNW 04:31:56 85° ENE 04:37:36 10° SSE
SL-4 R/B 2.2 04:32:59 23° SW 04:35:45 80° NW 04:40:31 10° NE
Cosmos 540 Rocket 3.9 04:31:14 10° S 04:36:18 63° ESE 04:41:25 10° NNE
Landsat 5 4.4 04:33:40 10° SSW 04:37:35 29° W 04:41:33 10° NW
Cosmos 44 Rocket 4.0 04:33:20 10° S 04:37:52 53° ESE 04:42:31 10° NE
Cosmos 1500 3.9 04:35:53 10° NNW 04:39:19 32° W 04:42:43 10° SSW
Cosmos 2227 4.1 04:37:29 10° NNW 04:43:06 71° WSW 04:48:41 10° SSE
ERBS 3.9 04:42:54 18° WNW 04:43:46 20° NW 04:46:20 10° N
CZ-4B R/B 1.0 04:42:02 10° S 04:45:06 76° WSW 04:48:16 10° NNW
Cosmos 1666 2.5 04:41:31 10° NNW 04:45:19 70° W 04:49:04 10° S
ADEOS Rocket 3.3 04:50:57 10° S 04:57:56 56° W 05:04:16 10° NNW
USA 234 3.6 04:51:55 10° SSE 04:58:05 45° SW 05:04:18 10° NW
deb Chang Zheng 4 4.0 04:55:01 10° N 04:59:01 39° WNW 05:02:58 10° SW
Cosmos 1898 Rocket 3.5 04:53:46 10° NNW 04:59:02 79° WSW 05:04:18 10° SSE
Cosmos 2219 Rocket 4.5 04:54:51 10° SSE 04:59:32 27° ESE 05:04:14 10° NE
BREEZE-M DEB (TANK) 3.7 04:53:45 13° W 04:59:51 35° NNW 05:02:49 10° NE
Cosmos 2208 Rocket 4.0 04:56:12 10° SSW 05:01:29 89° E 05:06:43 10° NNE
Cosmos 2173 Rocket 4.0 04:56:01 10° N 05:02:21 83° W 05:08:43 10° S
CZ-4B R/B 2.8 04:59:29 10° NNE 05:03:08 77° ESE 05:06:41 10° S
CZ-4B R/B 4.1 04:59:04 10° N 05:03:20 59° WNW 05:07:42 10° SSW
Cosmos 1707 Rocket 4.3 05:00:02 10° SW 05:03:49 29° WNW 05:07:38 10° NNW
Cosmos 2333 Rocket 4.0 05:01:30 10° SSE 05:06:41 36° ESE 05:11:53 10° NE
SAR-Lupe-4 3.8 05:04:24 10° S 05:07:50 46° W 05:11:19 10° NNW
USA 32 4.5 05:04:15 10° NNW 05:09:06 40° W 05:13:57 10° SSW
ADEOS 4.2 05:06:22 10° N 05:11:06 36° WNW 05:15:48 10° SW
Cosmos 858 Rocket 4.5 05:06:35 10° NNW 05:11:48 86° WSW 05:16:59 10° SSE
Cosmos 2061 Rocket 4.3 05:05:33 10° N 05:12:00 77° E 05:18:25 10° S
Okean 1 3.5 05:09:42 10° S 05:13:44 78° E 05:17:47 10° N
PSLV R/B 4.1 05:10:21 10° SSE 05:14:22 79° ENE 05:18:26 10° N
Cosmos 2322 4.4 05:11:38 10° S 05:17:11 60° ESE 05:22:45 10° NNE
Cosmos 1743 3.0 05:14:02 10° N 05:17:49 71° E 05:21:36 10° SSE
Meteor 1-11 Rocket 4.3 05:13:44 10° NNW 05:18:58 37° W 05:24:04 10° SSW
SKYMED 2 3.6 05:16:30 10° SSE 05:20:49 88° ENE 05:25:11 10° NNW
